TITAN 3C TRANSTAGE R/B, 9855

Orbit data source: Space-Track

TITAN 3C TRANSTAGE R/B, 9855 is space debris in GEO originally from a launch on Sun, 06 Feb 1977 UTC launched from the Air Force Eastern Test Range (AFETR). Debris objects in space refer to the collection of defunct objects orbiting the Earth. Examples of debris include non-operational satellites, rocket bodies, and fragments generated from explosions, collisions, or faulty payload assembly.

Loading next visibility...
Identifier
9855, 1977-007C
Orbit
GEO
Country
Flag of USUS
Related business
Manufacturer
Martin Marietta
Mission
Spacecraft
Bus & Motor
TRANSTAGE, Unknown motor
Mass
~1,950 kg wet, ~1,950 kg dry
Launch date (UTC)
1977-02-06 (49 years ago)
Launch vehicle
Unknown
Launch site
Air Force Eastern Test Range (AFETR)
Object type
Payload
Rocket body
Debris
Shape & HBR
Unknown
Radar Cross Section
RCS unknown

Expand to show TLE details & history
Last TLE update: 1 day ago

TLE from 1 day ago
0 TITAN 3C TRANSTAGE R/B
1  9855U 77007C   26094.58391153  .00000077  00000-0  00000+0 0  9997
2  9855   3.5827 269.1841 0017186  46.1719 313.5950  1.00315185 24620
Epoch: 2026-04-04T14:00Z
TLE epoch observation values (Epoch: 2026-04-04T14:00:49.956Z)
Latitude
0.00002°
Longitude
-134.29393°
Altitude
35,724.376 km
Speed
3.079 km/s
True Right ascension
17h 55m 15s
True Declination
0° 00' 00"
Sunlit
Object was in daylight at epoch
Visualization orbit readout
Latitude
Unknown
Longitude
Unknown
Altitude
Unknown
Speed
Unknown
Apparent Right ascension
Unknown
Apparent Declination
Unknown
Sunlit
N/A
Visualization observer readout
Local Sidereal Time
23:14:11
Azimuth
Unknown
Elevation
Unknown
Doppler factor
Unknown
Orbital elements
Apogee altitude
35,847.943 km
Perigee altitude
35,703.052 km
Semi-major axis
42,153.634 km
Eccentricity
0.00172
Inclination
3.5827°
RAAN
269.1841°
Arg. of periapsis
46.1719°
True anomaly
313.45216°
Mean anomaly
313.595°
Eccentric anomaly
313.5236°
Mean motion
0.25078 °/min
Orbital period
1,435.53 mins
BSTAR
0
Loading maneuver chart data...
Computing Atmospheric mass density...
Loading historical data...
Loading historical data...
Loading historical data...
Loading historical data...
Loading historical data...
Loading historical data...
Loading historical data...
Other satellites on launch #7 in the year 1977 (1977-02-06 UTC)

Documentation

Showing up to 5 results
|